Rome Ciampino, Italy

4:50 PM CET on February 08, 2016 (GMT +0100)
Ciampino

Weather History for LIRA - October, 2013

Change the Weather History Date:

Wednesday, October 23, 2013

  Actual Average Record
Temperature  
Mean Temperature 66 °F -  
Max Temperature 77 °F 63 °F 77 °F (2013)
Min Temperature 55 °F 46 °F 41 °F (2007)
Cooling Degree Days 1    
Growing Degree Days 16 (Base 50)    
Moisture  
Dew Point 63 °F    
Average Humidity 90    
Maximum Humidity 100    
Minimum Humidity 65    
Precipitation  
Precipitation 0.00 in 0.16 in - ()
Sea Level Pressure  
Sea Level Pressure 30.13 in    
Wind  
Wind Speed 3 mph ()    
Max Wind Speed 10 mph    
Max Gust Speed -    
Visibility 5.3 miles    
Events Fog    
Averages and records for this station are not official NWS values.
T = Trace of Precipitation, MM = Missing Value Source: Averaged Metar Reports

Daily Weather History Graph

Daily Weather History Graph

Search for Another Location

Airport or City:

Trip Planner

Search our weather history database for the weather conditions in past years. The results will help you decide how hot, cold, wet, or windy it might be!

Date:

Astronomy

Oct. 23, 2013 Rise Set
Actual Time 7:31 AM CEST 6:16 PM CEST
Civil Twilight 7:02 AM CEST 6:44 PM CEST
Nautical Twilight 6:30 AM CEST 7:17 PM CEST
Astronomical Twilight 5:58 AM CEST 7:49 PM CEST
Moon 9:30 PM CEST (10/23) 11:37 AM CEST (10/23)
Length of Visible Light 11h 41m
Length of Day
10h 45m
Waning Gibbous, 81% of the Moon is Illuminated
Oct 23
Waning Gibbous
Oct 27
Last Quarter
Nov 3
New
Nov 10
First Quarter
Nov 17
Full

Hourly Weather History & Observations

Time (CEST) Temp. Dew Point Humidity Pressure Visibility Wind Dir Wind Speed Gust Speed Precip Events Conditions
12:15 AM 62.6 °F 59.0 °F 88% 30.15 in - ESE 2.3 mph - N/A   Clear
12:45 AM 62.6 °F 59.0 °F 88% 30.15 in - Calm Calm - N/A   Clear
1:15 AM 60.8 °F 59.0 °F 94% 30.15 in - Calm Calm - N/A   Clear
1:45 AM 59.0 °F 59.0 °F 100% 30.15 in - Calm Calm - N/A   Clear
2:15 AM 59.0 °F 59.0 °F 100% 30.15 in 5.0 mi ENE 1.2 mph - N/A   Unknown
2:45 AM 59.0 °F 59.0 °F 100% 30.12 in 5.0 mi Calm Calm - N/A   Unknown
3:15 AM 59.0 °F 59.0 °F 100% 30.12 in 4.3 mi Calm Calm - N/A Fog Patches of Fog
3:45 AM 59.0 °F 57.2 °F 94% 30.12 in 4.3 mi Calm Calm - N/A   Partly Cloudy
4:15 AM 57.2 °F 57.2 °F 100% 30.12 in 4.3 mi Calm Calm - N/A   Partly Cloudy
4:45 AM 57.2 °F 55.4 °F 94% 30.12 in 3.7 mi Calm Calm - N/A   Partly Cloudy
5:15 AM 57.2 °F 57.2 °F 100% 30.12 in 3.7 mi SE 1.2 mph - N/A   Partly Cloudy
5:45 AM 57.2 °F 55.4 °F 94% 30.12 in 5.0 mi Calm Calm - N/A Fog Patches of Fog
6:15 AM 55.4 °F 55.4 °F 100% 30.12 in 4.3 mi SE 1.2 mph - N/A   Partly Cloudy
6:45 AM 55.4 °F 55.4 °F 100% 30.15 in 4.3 mi NW 1.2 mph - N/A   Partly Cloudy
7:15 AM 55.4 °F 55.4 °F 100% 30.15 in 4.3 mi Calm Calm - N/A   Scattered Clouds
7:45 AM 59.0 °F 59.0 °F 100% 30.15 in 4.3 mi ENE 2.3 mph - N/A   Scattered Clouds
8:15 AM 59.0 °F 59.0 °F 100% 30.15 in 3.1 mi Calm Calm - N/A   Scattered Clouds
8:45 AM 62.6 °F 60.8 °F 94% 30.15 in 3.1 mi Calm Calm - N/A   Partly Cloudy
9:15 AM 64.4 °F 64.4 °F 100% 30.15 in 3.1 mi Calm Calm - N/A   Partly Cloudy
9:45 AM 64.4 °F 64.4 °F 100% 30.15 in 3.7 mi NNW 2.3 mph - N/A   Unknown
10:15 AM 68.0 °F 64.4 °F 88% 30.15 in 5.0 mi ENE 3.5 mph - N/A   Unknown
10:45 AM 69.8 °F 64.4 °F 83% 30.15 in - NE 3.5 mph - N/A   Clear
11:15 AM 71.6 °F 66.2 °F 83% 30.15 in - NNE 3.5 mph - N/A   Clear
11:45 AM 75.2 °F 64.4 °F 69% 30.15 in - South 6.9 mph - N/A   Clear
12:15 PM 77.0 °F 64.4 °F 65% 30.15 in 6.2 mi South 8.1 mph - N/A   Partly Cloudy
12:45 PM 75.2 °F 64.4 °F 69% 30.15 in 6.2 mi South 10.4 mph - N/A   Scattered Clouds
1:15 PM 75.2 °F 66.2 °F 73% 30.15 in 6.2 mi South 8.1 mph - N/A   Scattered Clouds
1:45 PM 73.4 °F 64.4 °F 73% 30.15 in 6.2 mi SSW 8.1 mph - N/A   Scattered Clouds
2:15 PM 75.2 °F 66.2 °F 73% 30.12 in 6.2 mi South 9.2 mph - N/A   Scattered Clouds
2:45 PM 73.4 °F 66.2 °F 78% 30.09 in 6.2 mi South 10.4 mph - N/A   Scattered Clouds
3:15 PM 73.4 °F 66.2 °F 78% 30.12 in 6.2 mi South 8.1 mph - N/A   Scattered Clouds
3:45 PM 73.4 °F 66.2 °F 78% 30.12 in 6.2 mi South 8.1 mph - N/A   Scattered Clouds
4:15 PM 73.4 °F 66.2 °F 78% 30.09 in 6.2 mi South 8.1 mph - N/A   Scattered Clouds
4:45 PM 73.4 °F 66.2 °F 78% 30.09 in 6.2 mi South 8.1 mph - N/A   Scattered Clouds
5:15 PM 71.6 °F 66.2 °F 83% 30.09 in 6.2 mi SSW 5.8 mph - N/A   Scattered Clouds
5:45 PM 71.6 °F 68.0 °F 88% 30.09 in 6.2 mi South 5.8 mph - N/A   Scattered Clouds
6:15 PM 69.8 °F 68.0 °F 94% 30.09 in 6.2 mi South 4.6 mph - N/A   Scattered Clouds
6:45 PM 68.0 °F 66.2 °F 94% 30.09 in 6.2 mi South 5.8 mph - N/A   Scattered Clouds
7:15 PM 68.0 °F 66.2 °F 94% 30.09 in 6.2 mi South 6.9 mph - N/A   Scattered Clouds
7:45 PM 68.0 °F 66.2 °F 94% 30.12 in 6.2 mi South 5.8 mph - N/A   Scattered Clouds
8:15 PM 68.0 °F 66.2 °F 94% 30.12 in 6.2 mi South 8.1 mph - N/A   Scattered Clouds
8:45 PM 68.0 °F 66.2 °F 94% 30.12 in 6.2 mi South 8.1 mph - N/A   Scattered Clouds
9:15 PM 68.0 °F 66.2 °F 94% 30.12 in 6.2 mi South 8.1 mph - N/A   Partly Cloudy
9:45 PM 66.2 °F 64.4 °F 94% 30.12 in 6.2 mi South 8.1 mph - N/A   Partly Cloudy
10:15 PM 66.2 °F 64.4 °F 94% 30.12 in 6.2 mi South 8.1 mph - N/A   Partly Cloudy
10:45 PM 64.4 °F 62.6 °F 94% 30.12 in 6.2 mi South 10.4 mph - N/A   Partly Cloudy
11:15 PM 64.4 °F 62.6 °F 94% 30.12 in 6.2 mi South 8.1 mph - N/A   Partly Cloudy
11:45 PM 64.4 °F 62.6 °F 94% 30.12 in 6.2 mi SSE 8.1 mph - N/A   Partly Cloudy